Location: Tenerife
(28.2947°N, 16.5650°W)
Time: 15:44:41
(UTC+00:00)

Tiangong 2 - Visible Passes

Search period start: 23 January 2018 00:00
Search period end: 02 February 2018 00:00
Orbit: 384 x 390 km, 42.8° (Epoch: 23 January)

Date Brightness Start Highest point End Pass type
(mag) Time Alt. Az. Time Alt. Az. Time Alt. Az.
28 Jan 3.6 07:02:17 10° NNW 07:04:06 14° NNE 07:05:53 10° NE visible
30 Jan 3.0 06:42:05 17° N 06:43:30 23° NNE 06:46:06 10° E visible
31 Jan 4.4 05:46:12 11° NE 05:46:12 11° NE 05:46:23 10° ENE visible
31 Jan 1.0 07:18:29 10° WNW 07:21:36 82° SW 07:24:46 10° SE visible
01 Feb 1.8 06:22:40 44° NNE 06:22:47 44° NNE 06:25:50 10° ESE visible
